Change the Weather History Date:

Tuesday, July 23, 2013

  Actual Average (KWRI) Record (KWRI)
Temperature  
Mean Temperature 79 °F -  
Max Temperature 87 °F 83 °F 98 °F (2011)
Min Temperature 71 °F 64 °F 57 °F (2000)
Cooling Degree Days 14    
Growing Degree Days 29 (Base 50)    
Moisture  
Dew Point 71 °F    
Average Humidity 84    
Maximum Humidity 100    
Minimum Humidity 55    
Precipitation  
Precipitation 0.01 in - - ()
Sea Level Pressure  
Sea Level Pressure 29.69 in    
Wind  
Wind Speed 4 mph (West)    
Max Wind Speed 16 mph    
Max Gust Speed 26 mph    
Visibility 7 miles    
Events Fog , Rain    
Averages and records for this station are not official NWS values.
T = Trace of Precipitation, MM = Missing Value Source: NWS Daily Summary

Daily Weather History Graph

Daily Weather History Graph

Search for Another Location

Airport or City:

Trip Planner

Search our weather history database for the weather conditions in past years. The results will help you decide how hot, cold, wet, or windy it might be!

Date:

Astronomy

Jul. 23, 2013 Rise Set
Actual Time 5:50 AM EDT 8:21 PM EDT
Civil Twilight 5:18 AM EDT 8:52 PM EDT
Nautical Twilight 4:40 AM EDT 9:30 PM EDT
Astronomical Twilight 3:57 AM EDT 10:13 PM EDT
Moon 8:47 PM EDT (7/23) 6:55 AM EDT (7/23)
Length of Visible Light 15h 33m
Length of Day
14h 31m
Full, 99% of the Moon is Illuminated
Jul 23
Full
Jul 29
Last Quarter
Aug 6
New
Aug 14
First Quarter
Aug 20
Full

Hourly Weather History & Observations

Time (EDT) Temp. Heat Index Dew Point Humidity Pressure Visibility Wind Dir Wind Speed Gust Speed Precip Events Conditions
12:02 AM 75.2 °F - 73.4 °F 94% 29.78 in 5.0 mi Variable 5.8 mph - N/A   Overcast
12:54 AM 75.9 °F - 73.0 °F 91% 29.76 in 5.0 mi Calm Calm - N/A   Overcast
1:54 AM 75.9 °F - 73.9 °F 94% 29.74 in 5.0 mi SSE 4.6 mph - 0.00 in   Overcast
2:09 AM 75.2 °F - 73.4 °F 94% 29.74 in 1.8 mi Calm Calm - 0.00 in Rain Heavy Rain
2:20 AM 75.2 °F - 73.4 °F 94% 29.73 in 2.0 mi Variable 4.6 mph - N/A Rain Light Rain
2:31 AM 75.2 °F - 73.4 °F 94% 29.72 in 3.0 mi Calm Calm - N/A Rain Light Rain
2:46 AM 73.4 °F - 71.6 °F 94% 29.76 in 2.0 mi West 15.0 mph 19.6 mph N/A Rain Heavy Rain
2:48 AM 73.4 °F - 71.6 °F 94% 29.76 in 1.0 mi West 13.8 mph 19.6 mph N/A Rain Heavy Rain
2:54 AM 72.0 °F - 70.0 °F 93% 29.72 in 0.2 mi NW 16.1 mph 26.5 mph N/A Fog , Rain Heavy Rain
3:05 AM 71.6 °F - 69.8 °F 94% 29.74 in 1.2 mi NW 9.2 mph 21.9 mph N/A Rain Heavy Rain
3:10 AM 71.6 °F - 69.8 °F 94% 29.74 in 1.0 mi Variable 3.5 mph 21.9 mph N/A Rain Heavy Rain
3:12 AM 71.6 °F - 69.8 °F 94% 29.74 in 0.8 mi Calm Calm - N/A Rain Heavy Rain
3:23 AM 71.6 °F - 69.8 °F 94% 29.74 in 1.0 mi Calm Calm - N/A Rain Heavy Rain
3:33 AM 71.6 °F - 69.8 °F 94% 29.72 in 1.2 mi East 3.5 mph - N/A Rain Heavy Rain
3:41 AM 71.6 °F - 69.8 °F 94% 29.71 in 2.0 mi ENE 3.5 mph - N/A Rain Heavy Rain
3:52 AM 71.6 °F - 69.8 °F 94% 29.70 in 7.0 mi Calm Calm - N/A Rain Light Rain
3:54 AM 71.1 °F - 69.1 °F 93% 29.70 in 9.0 mi Calm Calm - N/A Rain Light Rain
4:54 AM 71.1 °F - 70.0 °F 96% 29.70 in 10.0 mi Calm Calm - N/A   Clear
5:54 AM 71.1 °F - 70.0 °F 96% 29.70 in 10.0 mi Calm Calm - N/A   Clear
6:15 AM 71.6 °F - 69.8 °F 94% 29.70 in 10.0 mi Calm Calm - N/A   Mostly Cloudy
6:49 AM 71.6 °F - 71.6 °F 100% 29.71 in 10.0 mi Calm Calm - N/A   Scattered Clouds
6:54 AM 72.0 °F - 71.1 °F 97% 29.70 in 9.0 mi Calm Calm - N/A   Partly Cloudy
7:54 AM 75.0 °F - 72.0 °F 90% 29.69 in 10.0 mi West 5.8 mph - N/A   Mostly Cloudy
8:49 AM 77.0 °F - 71.6 °F 83% 29.68 in 10.0 mi WSW 5.8 mph - N/A   Mostly Cloudy
8:54 AM 77.0 °F - 72.0 °F 84% 29.68 in 10.0 mi West 4.6 mph - N/A   Mostly Cloudy
9:08 AM 75.2 °F - 71.6 °F 89% 29.68 in 10.0 mi WSW 5.8 mph - N/A   Overcast
9:21 AM 75.2 °F - 71.6 °F 89% 29.68 in 10.0 mi West 6.9 mph - N/A   Overcast
9:54 AM 77.0 °F - 72.0 °F 84% 29.68 in 10.0 mi West 5.8 mph - N/A   Overcast
10:15 AM 78.8 °F - 71.6 °F 78% 29.67 in 10.0 mi West 5.8 mph - N/A   Mostly Cloudy
10:29 AM 80.6 °F 84.6 °F 71.6 °F 74% 29.67 in 10.0 mi West 4.6 mph - N/A   Scattered Clouds
10:54 AM 80.1 °F 83.8 °F 72.0 °F 76% 29.68 in 10.0 mi West 6.9 mph - N/A   Scattered Clouds
11:01 AM 80.6 °F 84.6 °F 71.6 °F 74% 29.67 in 10.0 mi WNW 4.6 mph - N/A   Mostly Cloudy
11:18 AM 80.6 °F 84.6 °F 71.6 °F 74% 29.68 in 10.0 mi Variable 3.5 mph - N/A   Mostly Cloudy
11:54 AM 80.1 °F 83.6 °F 71.1 °F 74% 29.66 in 10.0 mi West 3.5 mph - N/A   Overcast
12:54 PM 82.0 °F 86.7 °F 72.0 °F 71% 29.65 in 10.0 mi Calm Calm - N/A   Mostly Cloudy
1:08 PM 82.4 °F 87.2 °F 71.6 °F 70% 29.65 in 10.0 mi Variable 4.6 mph - 0.01 in   Mostly Cloudy
1:26 PM 82.4 °F 87.2 °F 71.6 °F 70% 29.64 in 10.0 mi SW 4.6 mph - 0.01 in   Mostly Cloudy
1:54 PM 84.0 °F 89.0 °F 71.1 °F 65% 29.63 in 10.0 mi Calm Calm - 0.01 in   Mostly Cloudy
2:54 PM 84.9 °F 91.4 °F 73.0 °F 67% 29.62 in 10.0 mi NW 5.8 mph - N/A   Mostly Cloudy
3:54 PM 87.1 °F 91.3 °F 69.1 °F 55% 29.61 in 10.0 mi WSW 9.2 mph 16.1 mph N/A   Clear
4:54 PM 82.9 °F 87.0 °F 70.0 °F 65% 29.62 in 10.0 mi West 11.5 mph 19.6 mph N/A   Overcast
5:54 PM 81.0 °F 84.9 °F 71.1 °F 72% 29.60 in 10.0 mi Calm Calm - 0.00 in   Overcast
6:54 PM 82.9 °F 87.0 °F 70.0 °F 65% 29.60 in 10.0 mi West 11.5 mph - N/A   Clear
7:54 PM 81.0 °F 84.9 °F 71.1 °F 72% 29.61 in 10.0 mi SW 4.6 mph - N/A   Clear
8:54 PM 79.0 °F - 71.1 °F 77% 29.63 in 10.0 mi WSW 4.6 mph - N/A   Partly Cloudy
9:54 PM 77.0 °F - 72.0 °F 84% 29.65 in 10.0 mi Calm Calm - N/A   Mostly Cloudy
10:54 PM 75.0 °F - 72.0 °F 90% 29.65 in 10.0 mi Calm Calm - N/A   Clear
11:54 PM 75.9 °F - 70.0 °F 82% 29.66 in 10.0 mi SW 3.5 mph - N/A   Clear